"Time","Value","Approval","myLocation"
"2023-05-07 00:00",12.7255222482436,"Approved","OW002"
"2023-05-07 01:00",12.7265245901639,"Approved","OW002"
"2023-05-07 02:00",12.7265269320843,"Approved","OW002"
"2023-05-07 03:00",12.7255292740047,"Approved","OW002"
"2023-05-07 04:00",12.7275316159251,"Approved","OW002"
"2023-05-07 05:00",12.7265339578454,"Approved","OW002"
"2023-05-07 06:00",12.7265362997658,"Approved","OW002"
"2023-05-07 07:00",12.7265386416862,"Approved","OW002"
"2023-05-07 08:00",12.7265409836066,"Approved","OW002"
"2023-05-07 09:00",12.7275433255269,"Approved","OW002"
"2023-05-07 10:00",12.7275456674473,"Approved","OW002"
"2023-05-07 11:00",12.7275480093677,"Approved","OW002"
"2023-05-07 12:00",12.7275503512881,"Approved","OW002"
"2023-05-07 13:00",12.7275526932084,"Approved","OW002"
"2023-05-07 14:00",12.7285550351288,"Approved","OW002"
"2023-05-07 15:00",12.7285573770492,"Approved","OW002"
"2023-05-07 16:00",12.7295597189696,"Approved","OW002"
"2023-05-07 17:00",12.7285620608899,"Approved","OW002"
"2023-05-07 18:00",12.7285644028103,"Approved","OW002"
"2023-05-07 19:00",12.7285667447307,"Approved","OW002"
"2023-05-07 20:00",12.7285690866511,"Approved","OW002"
"2023-05-07 21:00",12.7295714285714,"Approved","OW002"
"2023-05-07 22:00",12.7295737704918,"Approved","OW002"
"2023-05-07 23:00",12.7285761124122,"Approved","OW002"
"2023-05-08 00:00",12.7285784543326,"Approved","OW002"
"2023-05-08 01:00",12.7295807962529,"Approved","OW002"
"2023-05-08 02:00",12.7285831381733,"Approved","OW002"
"2023-05-08 03:00",12.7295854800937,"Approved","OW002"
"2023-05-08 04:00",12.7305878220141,"Approved","OW002"
"2023-05-08 05:00",12.7305901639344,"Approved","OW002"
"2023-05-08 06:00",12.7305925058548,"Approved","OW002"
"2023-05-08 07:00",12.7295948477752,"Approved","OW002"
"2023-05-08 08:00",12.7305971896956,"Approved","OW002"
"2023-05-08 09:00",12.7305995316159,"Approved","OW002"
"2023-05-08 10:00",12.7306018735363,"Approved","OW002"
"2023-05-08 11:00",12.7306042154567,"Approved","OW002"
"2023-05-08 12:00",12.730606557377,"Approved","OW002"
"2023-05-08 13:00",12.7306088992974,"Approved","OW002"
"2023-05-08 14:00",12.7316112412178,"Approved","OW002"
"2023-05-08 15:00",12.7306135831382,"Approved","OW002"
"2023-05-08 16:00",12.7306159250585,"Approved","OW002"
"2023-05-08 17:00",12.7306182669789,"Approved","OW002"
"2023-05-08 18:00",12.7296206088993,"Approved","OW002"
"2023-05-08 19:00",12.7306229508197,"Approved","OW002"
"2023-05-08 20:00",12.73062529274,"Approved","OW002"
"2023-05-08 21:00",12.7306276346604,"Approved","OW002"
"2023-05-08 22:00",12.7306299765808,"Approved","OW002"
"2023-05-08 23:00",12.7316323185012,"Approved","OW002"
"2023-05-09 00:00",12.7316346604215,"Approved","OW002"
"2023-05-09 01:00",12.7316370023419,"Approved","OW002"
"2023-05-09 02:00",12.7326393442623,"Approved","OW002"
"2023-05-09 03:00",12.7326416861827,"Approved","OW002"
"2023-05-09 04:00",12.733644028103,"Approved","OW002"
"2023-05-09 05:00",12.7326463700234,"Approved","OW002"
"2023-05-09 06:00",12.7336487119438,"Approved","OW002"
"2023-05-09 07:00",12.7336510538642,"Approved","OW002"
"2023-05-09 08:00",12.7336533957845,"Approved","OW002"
"2023-05-09 09:00",12.7346557377049,"Approved","OW002"
"2023-05-09 10:00",12.7346580796253,"Approved","OW002"
"2023-05-09 11:00",12.7346604215457,"Approved","OW002"
"2023-05-09 12:00",12.734662763466,"Approved","OW002"
"2023-05-09 13:00",12.7356651053864,"Approved","OW002"
"2023-05-09 14:00",12.7356674473068,"Approved","OW002"
"2023-05-09 15:00",12.7366697892272,"Approved","OW002"
"2023-05-09 16:00",12.7356721311475,"Approved","OW002"
"2023-05-09 17:00",12.7356744730679,"Approved","OW002"
"2023-05-09 18:00",12.7356768149883,"Approved","OW002"
"2023-05-09 19:00",12.7366791569087,"Approved","OW002"
"2023-05-09 20:00",12.735681498829,"Approved","OW002"
"2023-05-09 21:00",12.7356838407494,"Approved","OW002"
"2023-05-09 22:00",12.7356861826698,"Approved","OW002"
"2023-05-09 23:00",12.7356885245902,"Approved","OW002"
"2023-05-10 00:00",12.7356908665105,"Approved","OW002"
"2023-05-10 01:00",12.7356932084309,"Approved","OW002"
"2023-05-10 02:00",12.7366955503513,"Approved","OW002"
"2023-05-10 03:00",12.7376978922717,"Approved","OW002"
"2023-05-10 04:00",12.737700234192,"Approved","OW002"
"2023-05-10 05:00",12.7377025761124,"Approved","OW002"
"2023-05-10 06:00",12.7377049180328,"Approved","OW002"
"2023-05-10 07:00",12.7377072599532,"Approved","OW002"
"2023-05-10 08:00",12.7377096018735,"Approved","OW002"
"2023-05-10 09:00",12.7387119437939,"Approved","OW002"
"2023-05-10 10:00",12.7377142857143,"Approved","OW002"
"2023-05-10 11:00",12.7377166276347,"Approved","OW002"
"2023-05-10 12:00",12.738718969555,"Approved","OW002"
"2023-05-10 13:00",12.7387213114754,"Approved","OW002"
"2023-05-10 14:00",12.7387236533958,"Approved","OW002"
"2023-05-10 15:00",12.7397259953162,"Approved","OW002"
"2023-05-10 16:00",12.7387283372365,"Approved","OW002"
"2023-05-10 17:00",12.7387306791569,"Approved","OW002"
"2023-05-10 18:00",12.7387330210773,"Approved","OW002"
"2023-05-10 19:00",12.7387353629977,"Approved","OW002"
"2023-05-10 20:00",12.738737704918,"Approved","OW002"
"2023-05-10 21:00",12.7387400468384,"Approved","OW002"
"2023-05-10 22:00",12.7387423887588,"Approved","OW002"
"2023-05-10 23:00",12.7397447306792,"Approved","OW002"
"2023-05-11 00:00",12.7407470725995,"Approved","OW002"
"2023-05-11 01:00",12.7417494145199,"Approved","OW002"
"2023-05-11 02:00",12.7417517564403,"Approved","OW002"
"2023-05-11 03:00",12.7437540983607,"Approved","OW002"
"2023-05-11 04:00",12.745756440281,"Approved","OW002"
"2023-05-11 05:00",12.7457587822014,"Approved","OW002"
"2023-05-11 06:00",12.7467611241218,"Approved","OW002"
"2023-05-11 07:00",12.7477634660422,"Approved","OW002"
"2023-05-11 08:00",12.7487658079625,"Approved","OW002"
"2023-05-11 09:00",12.7497681498829,"Approved","OW002"
"2023-05-11 10:00",12.7507704918033,"Approved","OW002"
"2023-05-11 11:00",12.7517728337237,"Approved","OW002"
"2023-05-11 12:00",12.752775175644,"Approved","OW002"
"2023-05-11 13:00",12.7537775175644,"Approved","OW002"
"2023-05-11 14:00",12.7547798594848,"Approved","OW002"
"2023-05-11 15:00",12.7557822014052,"Approved","OW002"
"2023-05-11 16:00",12.7557845433255,"Approved","OW002"
"2023-05-11 17:00",12.7567868852459,"Approved","OW002"
"2023-05-11 18:00",12.7567892271663,"Approved","OW002"
"2023-05-11 19:00",12.7557915690867,"Approved","OW002"
"2023-05-11 20:00",12.756793911007,"Approved","OW002"
"2023-05-11 21:00",12.7557962529274,"Approved","OW002"
"2023-05-11 22:00",12.7557985948478,"Approved","OW002"
"2023-05-11 23:00",12.7548009367681,"Approved","OW002"
"2023-05-12 00:00",12.7548032786885,"Approved","OW002"
"2023-05-12 01:00",12.7558056206089,"Approved","OW002"
"2023-05-12 02:00",12.7548079625293,"Approved","OW002"
"2023-05-12 03:00",12.7558103044496,"Approved","OW002"
"2023-05-12 04:00",12.75581264637,"Approved","OW002"
"2023-05-12 05:00",12.7558149882904,"Approved","OW002"
"2023-05-12 06:00",12.7558173302108,"Approved","OW002"
"2023-05-12 07:00",12.7568196721311,"Approved","OW002"
"2023-05-12 08:00",12.7568220140515,"Approved","OW002"
"2023-05-12 09:00",12.7578243559719,"Approved","OW002"
"2023-05-12 10:00",12.7568266978923,"Approved","OW002"
"2023-05-12 11:00",12.7578290398126,"Approved","OW002"
"2023-05-12 12:00",12.757831381733,"Approved","OW002"
"2023-05-12 13:00",12.7578337236534,"Approved","OW002"
"2023-05-12 14:00",12.7578360655738,"Approved","OW002"
"2023-05-12 15:00",12.7588384074941,"Approved","OW002"
"2023-05-12 16:00",12.7588407494145,"Approved","OW002"
"2023-05-12 17:00",12.7588430913349,"Approved","OW002"
"2023-05-12 18:00",12.7588454332553,"Approved","OW002"
"2023-05-12 19:00",12.7588477751756,"Approved","OW002"
"2023-05-12 20:00",12.758850117096,"Approved","OW002"
"2023-05-12 21:00",12.7588524590164,"Approved","OW002"
"2023-05-12 22:00",12.7588548009368,"Approved","OW002"
"2023-05-12 23:00",12.7598571428571,"Approved","OW002"
"2023-05-13 00:00",12.7588594847775,"Approved","OW002"
"2023-05-13 01:00",12.7588618266979,"Approved","OW002"
"2023-05-13 02:00",12.7598641686183,"Approved","OW002"
"2023-05-13 03:00",12.7598665105386,"Approved","OW002"
"2023-05-13 04:00",12.760868852459,"Approved","OW002"
"2023-05-13 05:00",12.7608711943794,"Approved","OW002"
"2023-05-13 06:00",12.7618735362998,"Approved","OW002"
"2023-05-13 07:00",12.7618758782201,"Approved","OW002"
"2023-05-13 08:00",12.7628782201405,"Approved","OW002"
"2023-05-13 09:00",12.7618805620609,"Approved","OW002"
"2023-05-13 10:00",12.7628829039813,"Approved","OW002"
"2023-05-13 11:00",12.7638852459016,"Approved","OW002"
"2023-05-13 12:00",12.762887587822,"Approved","OW002"
"2023-05-13 13:00",12.7638899297424,"Approved","OW002"
"2023-05-13 14:00",12.7648922716628,"Approved","OW002"
"2023-05-13 15:00",12.7648946135831,"Approved","OW002"
"2023-05-13 16:00",12.7648969555035,"Approved","OW002"
"2023-05-13 17:00",12.7638992974239,"Approved","OW002"
"2023-05-13 18:00",12.7649016393443,"Approved","OW002"
"2023-05-13 19:00",12.7649039812646,"Approved","OW002"
"2023-05-13 20:00",12.765906323185,"Approved","OW002"
"2023-05-13 21:00",12.7649086651054,"Approved","OW002"
"2023-05-13 22:00",12.7649110070258,"Approved","OW002"
"2023-05-13 23:00",12.7659133489461,"Approved","OW002"
"2023-05-14 00:00",12.7659156908665,"Approved","OW002"
"2023-05-14 01:00",12.7659180327869,"Approved","OW002"
"2023-05-14 02:00",12.7669203747073,"Approved","OW002"
"2023-05-14 03:00",12.7679227166276,"Approved","OW002"
"2023-05-14 04:00",12.767925058548,"Approved","OW002"
"2023-05-14 05:00",12.7679274004684,"Approved","OW002"
"2023-05-14 06:00",12.7679297423888,"Approved","OW002"
"2023-05-14 07:00",12.7689320843091,"Approved","OW002"
"2023-05-14 08:00",12.7689344262295,"Approved","OW002"
"2023-05-14 09:00",12.7689367681499,"Approved","OW002"
"2023-05-14 10:00",12.7689391100703,"Approved","OW002"
"2023-05-14 11:00",12.7699414519906,"Approved","OW002"
"2023-05-14 12:00",12.769943793911,"Approved","OW002"
"2023-05-14 13:00",12.7709461358314,"Approved","OW002"
"2023-05-14 14:00",12.7709484777518,"Approved","OW002"
"2023-05-14 15:00",12.7709508196721,"Approved","OW002"
"2023-05-14 16:00",12.7689531615925,"Approved","OW002"
"2023-05-14 17:00",12.7699555035129,"Approved","OW002"
"2023-05-14 18:00",12.7699578454333,"Approved","OW002"
"2023-05-14 19:00",12.7709601873536,"Approved","OW002"
"2023-05-14 20:00",12.770962529274,"Approved","OW002"
"2023-05-14 21:00",12.7719648711944,"Approved","OW002"
"2023-05-14 22:00",12.7739672131148,"Approved","OW002"
"2023-05-14 23:00",12.7739695550351,"Approved","OW002"
"2023-05-15 00:00",12.7759718969555,"Approved","OW002"
"2023-05-15 01:00",12.7759742388759,"Approved","OW002"
"2023-05-15 02:00",12.7779765807963,"Approved","OW002"
"2023-05-15 03:00",12.7799789227166,"Approved","OW002"
"2023-05-15 04:00",12.780981264637,"Approved","OW002"
"2023-05-15 05:00",12.7819836065574,"Approved","OW002"
"2023-05-15 06:00",12.7829859484778,"Approved","OW002"
"2023-05-15 07:00",12.7859882903981,"Approved","OW002"
"2023-05-15 08:00",12.7859906323185,"Approved","OW002"
"2023-05-15 09:00",12.7869929742389,"Approved","OW002"
"2023-05-15 10:00",12.7869953161593,"Approved","OW002"
"2023-05-15 11:00",12.7879976580796,"Approved","OW002"
"2023-05-15 12:00",12.789,"Approved","OW002"
"2023-05-15 13:00",12.7900023419204,"Approved","OW002"
"2023-05-15 14:00",12.7910046838407,"Approved","OW002"
"2023-05-15 15:00",12.7910070257611,"Approved","OW002"
"2023-05-15 16:00",12.7920093676815,"Approved","OW002"
"2023-05-15 17:00",12.7920117096019,"Approved","OW002"
"2023-05-15 18:00",12.7920140515222,"Approved","OW002"
"2023-05-15 19:00",12.7930163934426,"Approved","OW002"
"2023-05-15 20:00",12.793018735363,"Approved","OW002"
"2023-05-15 21:00",12.7930210772834,"Approved","OW002"
"2023-05-15 22:00",12.7930234192037,"Approved","OW002"
"2023-05-15 23:00",12.7930257611241,"Approved","OW002"
"2023-05-16 00:00",12.7940281030445,"Approved","OW002"
"2023-05-16 01:00",12.7950304449649,"Approved","OW002"
"2023-05-16 02:00",12.7960327868852,"Approved","OW002"
"2023-05-16 03:00",12.7980351288056,"Approved","OW002"
"2023-05-16 04:00",12.799037470726,"Approved","OW002"
"2023-05-16 05:00",12.7990398126464,"Approved","OW002"
"2023-05-16 06:00",12.7990421545667,"Approved","OW002"
"2023-05-16 07:00",12.8010444964871,"Approved","OW002"
"2023-05-16 08:00",12.8020468384075,"Approved","OW002"
"2023-05-16 09:00",12.8020491803279,"Approved","OW002"
"2023-05-16 10:00",12.8030515222482,"Approved","OW002"
"2023-05-16 11:00",12.8030538641686,"Approved","OW002"
"2023-05-16 12:00",12.802056206089,"Approved","OW002"
"2023-05-16 13:00",12.8030585480094,"Approved","OW002"
"2023-05-16 14:00",12.8040608899297,"Approved","OW002"
"2023-05-16 15:00",12.8040632318501,"Approved","OW002"
"2023-05-16 16:00",12.8050655737705,"Approved","OW002"
"2023-05-16 17:00",12.8050679156909,"Approved","OW002"
"2023-05-16 18:00",12.8060702576112,"Approved","OW002"
"2023-05-16 19:00",12.8050725995316,"Approved","OW002"
"2023-05-16 20:00",12.806074941452,"Approved","OW002"
"2023-05-16 21:00",12.8060772833724,"Approved","OW002"
"2023-05-16 22:00",12.8070796252927,"Approved","OW002"
"2023-05-16 23:00",12.8060819672131,"Approved","OW002"
"2023-05-17 00:00",12.8070843091335,"Approved","OW002"
"2023-05-17 01:00",12.8070866510539,"Approved","OW002"
"2023-05-17 02:00",12.8100889929742,"Approved","OW002"
"2023-05-17 03:00",12.8110913348946,"Approved","OW002"
"2023-05-17 04:00",12.811093676815,"Approved","OW002"
"2023-05-17 05:00",12.8140960187354,"Approved","OW002"
"2023-05-17 06:00",12.8120983606557,"Approved","OW002"
"2023-05-17 07:00",12.8121007025761,"Approved","OW002"
"2023-05-17 08:00",12.8141030444965,"Approved","OW002"
"2023-05-17 09:00",12.8131053864169,"Approved","OW002"
"2023-05-17 10:00",12.8141077283372,"Approved","OW002"
"2023-05-17 11:00",12.8131100702576,"Approved","OW002"
"2023-05-17 12:00",12.814112412178,"Approved","OW002"
"2023-05-17 13:00",12.8151147540984,"Approved","OW002"
"2023-05-17 14:00",12.8151170960187,"Approved","OW002"
"2023-05-17 15:00",12.8141194379391,"Approved","OW002"
"2023-05-17 16:00",12.8161217798595,"Approved","OW002"
"2023-05-17 17:00",12.8151241217799,"Approved","OW002"
"2023-05-17 18:00",12.8151264637002,"Approved","OW002"
"2023-05-17 19:00",12.8151288056206,"Approved","OW002"
"2023-05-17 20:00",12.815131147541,"Approved","OW002"
"2023-05-17 21:00",12.8161334894614,"Approved","OW002"
"2023-05-17 22:00",12.8161358313817,"Approved","OW002"
"2023-05-17 23:00",12.8161381733021,"Approved","OW002"
"2023-05-18 00:00",12.8171405152225,"Approved","OW002"
"2023-05-18 01:00",12.8171428571429,"Approved","OW002"
"2023-05-18 02:00",12.8181451990632,"Approved","OW002"
"2023-05-18 03:00",12.8191475409836,"Approved","OW002"
"2023-05-18 04:00",12.820149882904,"Approved","OW002"
"2023-05-18 05:00",12.8221522248244,"Approved","OW002"
"2023-05-18 06:00",12.8231545667447,"Approved","OW002"
"2023-05-18 07:00",12.8241569086651,"Approved","OW002"
"2023-05-18 08:00",12.8261592505855,"Approved","OW002"
"2023-05-18 09:00",12.8271615925059,"Approved","OW002"
"2023-05-18 10:00",12.8291639344262,"Approved","OW002"
"2023-05-18 11:00",12.8301662763466,"Approved","OW002"
"2023-05-18 12:00",12.832168618267,"Approved","OW002"
"2023-05-18 13:00",12.8331709601874,"Approved","OW002"
"2023-05-18 14:00",12.8331733021077,"Approved","OW002"
"2023-05-18 15:00",12.8351756440281,"Approved","OW002"
"2023-05-18 16:00",12.8351779859485,"Approved","OW002"
"2023-05-18 17:00",12.8351803278689,"Approved","OW002"
"2023-05-18 18:00",12.8361826697892,"Approved","OW002"
"2023-05-18 19:00",12.8381850117096,"Approved","OW002"
"2023-05-18 20:00",12.84018735363,"Approved","OW002"
"2023-05-18 21:00",12.8411896955504,"Approved","OW002"
"2023-05-18 22:00",12.8431920374707,"Approved","OW002"
"2023-05-18 23:00",12.8451943793911,"Approved","OW002"
"2023-05-19 00:00",12.8461967213115,"Approved","OW002"
"2023-05-19 01:00",12.8491990632319,"Approved","OW002"
"2023-05-19 02:00",12.8492014051522,"Approved","OW002"
"2023-05-19 03:00",12.8522037470726,"Approved","OW002"
"2023-05-19 04:00",12.854206088993,"Approved","OW002"
"2023-05-19 05:00",12.8552084309133,"Approved","OW002"
"2023-05-19 06:00",12.8562107728337,"Approved","OW002"
"2023-05-19 07:00",12.8582131147541,"Approved","OW002"
"2023-05-19 08:00",12.8582154566745,"Approved","OW002"
"2023-05-19 09:00",12.8602177985948,"Approved","OW002"
"2023-05-19 10:00",12.8612201405152,"Approved","OW002"
"2023-05-19 11:00",12.8622224824356,"Approved","OW002"
"2023-05-19 12:00",12.863224824356,"Approved","OW002"
"2023-05-19 13:00",12.8642271662763,"Approved","OW002"
"2023-05-19 14:00",12.8642295081967,"Approved","OW002"
"2023-05-19 15:00",12.8642318501171,"Approved","OW002"
"2023-05-19 16:00",12.8652341920375,"Approved","OW002"
"2023-05-19 17:00",12.8662365339578,"Approved","OW002"
"2023-05-19 18:00",12.8672388758782,"Approved","OW002"
"2023-05-19 19:00",12.8682412177986,"Approved","OW002"
"2023-05-19 20:00",12.870243559719,"Approved","OW002"
"2023-05-19 21:00",12.8712459016393,"Approved","OW002"
"2023-05-19 22:00",12.8732482435597,"Approved","OW002"
"2023-05-19 23:00",12.8732505854801,"Approved","OW002"
"2023-05-20 00:00",12.8742529274005,"Approved","OW002"
"2023-05-20 01:00",12.8762552693208,"Approved","OW002"
"2023-05-20 02:00",12.8772576112412,"Approved","OW002"
"2023-05-20 03:00",12.8792599531616,"Approved","OW002"
"2023-05-20 04:00",12.882262295082,"Approved","OW002"
"2023-05-20 05:00",12.8822646370023,"Approved","OW002"
"2023-05-20 06:00",12.8842669789227,"Approved","OW002"
"2023-05-20 07:00",12.8862693208431,"Approved","OW002"
"2023-05-20 08:00",12.8882716627635,"Approved","OW002"
"2023-05-20 09:00",12.8892740046838,"Approved","OW002"
"2023-05-20 10:00",12.8902763466042,"Approved","OW002"
"2023-05-20 11:00",12.8912786885246,"Approved","OW002"
"2023-05-20 12:00",12.890281030445,"Approved","OW002"
"2023-05-20 13:00",12.8922833723653,"Approved","OW002"
"2023-05-20 14:00",12.8922857142857,"Approved","OW002"
"2023-05-20 15:00",12.8912880562061,"Approved","OW002"
"2023-05-20 16:00",12.8912903981265,"Approved","OW002"
"2023-05-20 17:00",12.8922927400468,"Approved","OW002"
"2023-05-20 18:00",12.8922950819672,"Approved","OW002"
"2023-05-20 19:00",12.8932974238876,"Approved","OW002"
"2023-05-20 20:00",12.894299765808,"Approved","OW002"
"2023-05-20 21:00",12.8953021077283,"Approved","OW002"
"2023-05-20 22:00",12.8973044496487,"Approved","OW002"
"2023-05-20 23:00",12.8983067915691,"Approved","OW002"
"2023-05-21 00:00",12.8993091334895,"Approved","OW002"
"2023-05-21 01:00",12.9013114754098,"Approved","OW002"
"2023-05-21 02:00",12.9023138173302,"Approved","OW002"
"2023-05-21 03:00",12.9043161592506,"Approved","OW002"
"2023-05-21 04:00",12.906318501171,"Approved","OW002"
"2023-05-21 05:00",12.9083208430913,"Approved","OW002"
"2023-05-21 06:00",12.9103231850117,"Approved","OW002"
"2023-05-21 07:00",12.9113255269321,"Approved","OW002"
"2023-05-21 08:00",12.9123278688525,"Approved","OW002"
"2023-05-21 09:00",12.9133302107728,"Approved","OW002"
"2023-05-21 10:00",12.9153325526932,"Approved","OW002"
"2023-05-21 11:00",12.9153348946136,"Approved","OW002"
"2023-05-21 12:00",12.916337236534,"Approved","OW002"
"2023-05-21 13:00",12.9173395784543,"Approved","OW002"
"2023-05-21 14:00",12.9183419203747,"Approved","OW002"
"2023-05-21 15:00",12.9183442622951,"Approved","OW002"
"2023-05-21 16:00",12.9183466042155,"Approved","OW002"
"2023-05-21 17:00",12.9183489461358,"Approved","OW002"
"2023-05-21 18:00",12.9193512880562,"Approved","OW002"
"2023-05-21 19:00",12.9193536299766,"Approved","OW002"
"2023-05-21 20:00",12.920355971897,"Approved","OW002"
"2023-05-21 21:00",12.9203583138173,"Approved","OW002"
"2023-05-21 22:00",12.9213606557377,"Approved","OW002"
"2023-05-21 23:00",12.9213629976581,"Approved","OW002"
"2023-05-22 00:00",12.9223653395785,"Approved","OW002"
"2023-05-22 01:00",12.9233676814988,"Approved","OW002"
"2023-05-22 02:00",12.9233700234192,"Approved","OW002"
"2023-05-22 03:00",12.9253723653396,"Approved","OW002"
"2023-05-22 04:00",12.92637470726,"Approved","OW002"
"2023-05-22 05:00",12.9263770491803,"Approved","OW002"
"2023-05-22 06:00",12.9273793911007,"Approved","OW002"
"2023-05-22 07:00",12.9283817330211,"Approved","OW002"
"2023-05-22 08:00",12.9273840749415,"Approved","OW002"
"2023-05-22 09:00",12.9293864168618,"Approved","OW002"
"2023-05-22 10:00",12.9293887587822,"Approved","OW002"
"2023-05-22 11:00",12.9283911007026,"Approved","OW002"
"2023-05-22 12:00",12.9283934426229,"Approved","OW002"
"2023-05-22 13:00",12.9283957845433,"Approved","OW002"
"2023-05-22 14:00",12.9283981264637,"Approved","OW002"
"2023-05-22 15:00",12.9274004683841,"Approved","OW002"
"2023-05-22 16:00",12.9284028103044,"Approved","OW002"
"2023-05-22 17:00",12.9274051522248,"Approved","OW002"
"2023-05-22 18:00",12.9274074941452,"Approved","OW002"
"2023-05-22 19:00",12.9274098360656,"Approved","OW002"
"2023-05-22 20:00",12.9274121779859,"Approved","OW002"
"2023-05-22 21:00",12.9274145199063,"Approved","OW002"
"2023-05-22 22:00",12.9274168618267,"Approved","OW002"
"2023-05-22 23:00",12.9274192037471,"Approved","OW002"
"2023-05-23 00:00",12.9274215456674,"Approved","OW002"
"2023-05-23 01:00",12.9274238875878,"Approved","OW002"
"2023-05-23 02:00",12.9274262295082,"Approved","OW002"
"2023-05-23 03:00",12.9274285714286,"Approved","OW002"
"2023-05-23 04:00",12.9284309133489,"Approved","OW002"
"2023-05-23 05:00",12.9294332552693,"Approved","OW002"
"2023-05-23 06:00",12.9294355971897,"Approved","OW002"
"2023-05-23 07:00",12.9294379391101,"Approved","OW002"
"2023-05-23 08:00",12.9304402810304,"Approved","OW002"
"2023-05-23 09:00",12.9294426229508,"Approved","OW002"
"2023-05-23 10:00",12.9294449648712,"Approved","OW002"
"2023-05-23 11:00",12.9294473067916,"Approved","OW002"
"2023-05-23 12:00",12.9304496487119,"Approved","OW002"
"2023-05-23 13:00",12.9294519906323,"Approved","OW002"
"2023-05-23 14:00",12.9304543325527,"Approved","OW002"
"2023-05-23 15:00",12.9304566744731,"Approved","OW002"
"2023-05-23 16:00",12.9314590163934,"Approved","OW002"
"2023-05-23 17:00",12.9324613583138,"Approved","OW002"
"2023-05-23 18:00",12.9324637002342,"Approved","OW002"
"2023-05-23 19:00",12.9334660421546,"Approved","OW002"
"2023-05-23 20:00",12.9354683840749,"Approved","OW002"
"2023-05-23 21:00",12.9364707259953,"Approved","OW002"
"2023-05-23 22:00",12.9364730679157,"Approved","OW002"
"2023-05-23 23:00",12.9384754098361,"Approved","OW002"
"2023-05-24 00:00",12.9384777517564,"Approved","OW002"
"2023-05-24 01:00",12.9394800936768,"Approved","OW002"
"2023-05-24 02:00",12.9404824355972,"Approved","OW002"
"2023-05-24 03:00",12.9404847775176,"Approved","OW002"
"2023-05-24 04:00",12.9424871194379,"Approved","OW002"
"2023-05-24 05:00",12.9424894613583,"Approved","OW002"
"2023-05-24 06:00",12.9434918032787,"Approved","OW002"
"2023-05-24 07:00",12.9434941451991,"Approved","OW002"
"2023-05-24 08:00",12.9444964871194,"Approved","OW002"
"2023-05-24 09:00",12.9454988290398,"Approved","OW002"
"2023-05-24 10:00",12.9455011709602,"Approved","OW002"
"2023-05-24 11:00",12.9465035128806,"Approved","OW002"
"2023-05-24 12:00",12.9455058548009,"Approved","OW002"
"2023-05-24 13:00",12.9455081967213,"Approved","OW002"
"2023-05-24 14:00",12.9455105386417,"Approved","OW002"
"2023-05-24 15:00",12.9455128805621,"Approved","OW002"
"2023-05-24 16:00",12.9445152224824,"Approved","OW002"
"2023-05-24 17:00",12.9455175644028,"Approved","OW002"
"2023-05-24 18:00",12.9445199063232,"Approved","OW002"
"2023-05-24 19:00",12.9455222482436,"Approved","OW002"